HUMPTULLIPS WA US current weather conditions

sailwx.info

Wind from 306 at 3 knots gusting 4

Air temperature 15.6° C
Dewpoint 14.4° C

Last reported at 2020-Aug-04 04:08 UTC.
Time now 2020-Aug-04 06:01 UTC

Location: N 47°23' W 123°46'.
View on Google Maps.

See reports from other nearby stations

  
Tides and Currents Weather Stations Pressure Air Temp Water Temp Dewpoint Dewpoint Depression Visibility Wind Speed Wind Dir Waves Ship Positions
date/time (UTC)wind fromknots sea level pressurealtimeterstation pressurevisibilityair tempwater tempwave heightnotes
2020-Aug-04 04:08 306 3 gusting 4 15.6
2020-Aug-04 03:08 255 2 gusting 9 18.3
2020-Aug-04 02:08 254 3 gusting 11 21.1
2020-Aug-04 01:08 253 2 gusting 8 20.6
2020-Aug-04 00:08 257 3 gusting 10 23.3
2020-Aug-03 23:08 252 3 gusting 10 21.1
2020-Aug-03 22:08 237 4 gusting 10 21.1
2020-Aug-03 21:08 250 3 gusting 8 20.6
2020-Aug-03 20:08 247 3 gusting 8 20.0
2020-Aug-03 19:08 235 3 gusting 7 18.3
2020-Aug-03 18:08 251 2 gusting 6 16.7
2020-Aug-03 17:08 229 0 gusting 3 16.1
2020-Aug-03 16:08 257 0 gusting 4 15.0
2020-Aug-03 15:08 272 3 gusting 6 13.9
2020-Aug-03 14:08 262 2 gusting 5 13.3
2020-Aug-03 13:08 270 2 gusting 4 13.3
2020-Aug-03 12:08 230 1 gusting 2 13.3
2020-Aug-03 11:08 13.3
2020-Aug-03 10:08 247 1 gusting 6 13.3
2020-Aug-03 09:08 259 2 gusting 7 13.9
2020-Aug-03 08:08 252 3 gusting 7 13.9
2020-Aug-03 07:08 269 5 gusting 7 12.8
2020-Aug-03 06:08 269 3 gusting 8 13.9
2020-Aug-03 05:08 301 3 gusting 7 15.0
2020-Aug-03 04:08 299 3 gusting 6 14.4
2020-Aug-03 03:08 262 4 gusting 6 13.9
2020-Aug-03 02:08 252 2 gusting 7 16.1
2020-Aug-03 01:08 247 4 gusting 11 21.1
2020-Aug-03 00:08 247 4 gusting 9 23.3
2020-Aug-02 23:08 255 3 gusting 10 22.2
2020-Aug-02 22:08 247 4 gusting 12 22.2
2020-Aug-02 21:08 247 4 gusting 11 21.1
2020-Aug-02 20:08 238 5 gusting 10 21.1
2020-Aug-02 19:08 243 4 gusting 6 18.3
2020-Aug-02 18:08 250 1 gusting 5 14.4
2020-Aug-02 17:08 234 2 gusting 6 14.4
2020-Aug-02 16:08 220 3 gusting 6 13.9
2020-Aug-02 15:08 15.6
2020-Aug-02 14:08 182 0 gusting 4 14.4
2020-Aug-02 13:08 195 1 gusting 6 13.3
2020-Aug-02 12:08 073 4 gusting 6 13.3
2020-Aug-02 11:08 118 3 gusting 6 13.9
2020-Aug-02 10:08 154 1 gusting 2 15.0
2020-Aug-02 09:08 099 1 gusting 4 15.0
2020-Aug-02 08:08 321 0 gusting 5 14.4
2020-Aug-02 07:08 309 3 gusting 5 15.0
2020-Aug-02 06:08 340 2 gusting 6 13.9